{"data":{"norad_id":66520,"epoch":"2026-05-25T04:59:20.248800Z","epoch_age_seconds":60317,"freshness":"FRESH","line1":"1 66520U 25265E   26145.20787325  .00013793  00000+0  50992-3 0  9991","line2":"2 66520  43.0004 206.0019 0001316 260.2000  99.8703 15.27572186 28810","mean_motion":15.27572186,"eccentricity":0.0001316,"inclination_deg":43.0004,"raan_deg":206.0019,"arg_perigee_deg":260.2,"mean_anomaly_deg":99.8703,"bstar":0.00050992,"rev_number":2881,"period_min":94.267230916968,"perigee_km":482.16955889705,"apogee_km":483.97542923588,"semimajor_km":6861.2094940665,"source":"CELESTRAK","updated_at":"2026-05-25T13:38:21.249658Z"}}